Regional Weather Roundup
Issued by NWS Jackson, KY

Home | Current Version | Previous Version | Text Only | Print | Product List | Glossary On
Versions: 1 2 3 4 5 6 7 8 9 10 11 12 13 14 15 16 17 18 19 20 21 22 23 24 25 26 27 28 29 30 31 32 33 34 35 36 37 38 39 40 41 42 43 44 45 46 47 48 49 50
222
ASUS43 KJKL 111310
RWRJKL

EAST KENTUCKY HOURLY WEATHER ROUNDUP
NATIONAL WEATHER SERVICE JACKSON KY
800 AM EST THU FEB 11 2016

NOTE: "FAIR" INDICATES FEW OR NO CLOUDS BELOW 12,000 FEET WITH
NO SIGNIFICANT WEATHER AND/OR OBSTRUCTIONS TO VISIBILITY.

* THESE REPORTS ARE NOT UNDER NWS QUALITY CONTROL AND MAY NOT
  REPORT WEATHER SUCH AS PRECIPITATION AND FOG.

KYZ079-080-083-085-087-088-110-112-115-119-120-111400
...EASTERN KENTUCKY...

CITY           SKY/WX    TMP DP  RH WIND       PRES   REMARKS
JACKSON        CLOUDY    16  10  77 CALM      30.19R
LONDON         CLOUDY    20  12  71 CALM      30.19R
SOMERSET*      CLOUDY    21  16  79 CALM      30.23S
MONTICELLO*    FLURRIES  23  17  78 W7        30.23R WCI  15
WILLIAMSBURG*  CLOUDY    21  18  86 CALM      30.20R
MIDDLESBORO*   CLOUDY    23  16  75 NE3       30.20R
HARLAN APT*    CLOUDY    19  16  86 CALM      30.18R
HAZARD APT*    CLOUDY    18  12  79 CALM      30.20
BLACK MTN*       N/A      9   7  92 CALM        N/A
BIG SANDY*     CLOUDY    16   9  73 CALM      30.20R
MOREHEAD APT*  PTSUNNY   14   7  73 CALM      30.24R
$$

KYZ035-036-041-042-044-050-067-078-099-111400
...CENTRAL KENTUCKY...

CITY           SKY/WX    TMP DP  RH WIND       PRES   REMARKS
MT STERLING*   CLOUDY    14  12  92 CALM      30.25R
DANVILLE*      CLOUDY    19  14  79 CALM      30.23R
RICHMOND*      CLOUDY    19  12  73 CALM      30.22R
LEXINGTON      CLOUDY    16  12  84 CALM      30.23R
FRANKFORT        N/A     16   8  71 CALM      30.24R
$$

KYZ091>093-OHZ055-061-077-WVZ005-015-034-035-042-111400
...SOUTHERN OHIO/WEST VIRGINIA...

CITY           SKY/WX    TMP DP  RH WIND       PRES   REMARKS
COVINGTON      MOCLDY    11   6  81 W5        30.23R WCI   3
COLUMBUS       CLOUDY    10   3  73 W6        30.20R WCI   0
DAYTON         MOCLDY     9   5  84 W8        30.20R WCI  -3
WILMINGTON     CLEAR      7   3  84 W5        30.20R WCI  -2
HUNTINGTON     CLOUDY    16   7  67 CALM      30.22R
CHARLESTON     MOCLDY    16   4  59 NW7       30.20R WCI   6
PINEVILLE*       N/A     16   5  62 MISG      30.18R
BECKLEY        CLOUDY    11   3  70 NW7       30.05R WCI   0
$$

VAZ002-007-008-TNZ017-027-036-066-071-111400
...SOUTHWEST VIRGINIA/EAST TENNESSEE...

CITY           SKY/WX    TMP DP  RH WIND       PRES   REMARKS
BRISTOL        CLOUDY    21  12  68 W5        30.17R WCI  15
KNOXVILLE      CLOUDY    27  19  72 SW3       30.19R
OAK RIDGE      CLOUDY    28  18  66 W3        30.21R
CROSSVILLE     CLOUDY    24  18  77 CALM      30.14R
NASHVILLE      CLOUDY    27  20  75 NE3       30.23R
$$

...KEY TO REMARKS...
VSB - VISIBILITY IN MILES
WCI - WIND CHILL INDEX
HX  - HEAT INDEX

$$




USA.gov is the U.S. government's official web portal to all federal, state and local government web resources and services.